Vorticity
nan nan nan nan nan nan nan nan nan nan nan nan nan nan nan nan nan nan nan nan nan nan nan nan nan nan nan nan nan nan nan nan nan nan nan nan nan nan
nan 13 8 8 9 9 10 10 9 7 8 11 11 11 9 7 13 9 8 13 13 9 9 9 7 8 8 10 12 13 14 15 17 13 11 9 7 nan
nan 12 9 7 7 7 9 10 11 10 10 6 12 14 13 7 9 12 11 10 13 16 10 9 11 9 8 10 14 15 15 15 11 9 9 9 8 nan
nan 10 9 9 10 7 8 9 8 10 11 9 8 13 14 13 12 13 12 14 16 16 14 10 9 10 12 13 14 14 13 12 10 10 11 10 8 nan
nan 10 10 8 8 9 8 8 7 9 9 10 7 10 11 11 10 12 11 9 15 19 18 15 13 12 15 17 14 11 10 12 12 12 10 11 11 nan
nan 9 9 8 8 7 8 8 6 8 9 10 9 10 9 9 8 9 7 9 9 10 16 20 21 21 18 14 12 13 11 11 11 10 9 11 12 nan
nan 9 11 11 9 8 10 12 10 9 9 10 10 9 8 10 10 8 10 7 7 10 10 13 15 14 15 14 15 15 12 11 9 7 8 8 9 nan
nan 9 10 12 12 11 9 11 13 14 12 10 8 8 9 5 10 9 8 7 8 10 10 10 9 11 9 16 19 10 8 8 8 8 8 6 8 nan
nan 9 7 8 10 10 11 10 9 12 10 10 12 7 11 11 7 9 8 8 12 13 7 7 8 9 13 16 13 10 10 9 8 7 8 9 8 nan
nan 13 11 10 12 11 8 10 10 11 12 9 8 9 5 12 15 13 6 5 14 9 6 11 8 10 11 15 13 10 8 9 8 8 9 9 9 nan
nan 10 16 15 15 11 8 8 9 12 11 11 8 16 24 20 17 13 15 5 6 10 7 11 12 8 10 11 12 12 8 7 8 8 8 8 8 nan
nan 4 9 19 17 11 10 11 10 9 10 15 14 10 24 28 19 14 13 5 4 12 11 12 11 6 9 12 12 7 12 11 6 7 8 7 3 nan
nan 8 6 15 20 18 15 16 17 11 10 10 10 11 9 10 9 15 15 17 11 12 13 12 11 6 12 14 12 11 11 8 8 13 10 8 5 nan
nan 12 12 11 12 15 18 17 15 10 10 10 10 10 10 9 10 12 13 16 17 19 14 8 12 12 12 12 13 12 11 10 11 10 11 13 11 nan
nan 13 9 5 6 5 8 11 13 14 13 11 10 10 11 11 11 10 10 9 11 14 14 17 18 12 11 14 14 14 11 8 11 11 11 11 12 nan
nan 7 6 6 7 8 6 9 12 13 13 11 10 10 10 11 11 12 10 8 7 7 12 18 17 15 15 16 15 11 10 12 11 9 9 9 9 nan
nan 9 9 9 8 9 10 10 11 13 12 11 11 10 11 11 11 12 11 13 11 9 8 7 10 14 16 16 13 10 11 12 11 11 10 10 9 nan
nan 11 12 12 12 12 12 11 11 12 11 12 11 11 11 11 11 12 12 11 11 11 10 10 8 6 4 3 14 19 10 11 12 11 9 11 12 nan
nan 12 12 11 11 11 11 12 12 11 12 12 12 12 11 11 12 12 12 12 11 10 10 10 10 11 9 6 -2 12 22 10 10 11 11 9 10 nan
nan 11 11 11 12 11 11 12 12 12 11 11 11 11 12 12 11 11 12 12 10 9 9 11 14 16 13 11 9 -1 13 23 11 10 10 10 10 nan
nan 11 11 12 11 12 12 11 11 11 12 11 10 10 11 12 11 11 11 11 11 9 9 10 11 12 12 12 11 9 4 7 14 16 16 14 12 nan
nan 11 11 12 12 12 12 11 10 11 11 10 10 12 12 11 11 11 11 9 9 11 10 11 10 9 10 11 13 10 8 9 10 8 8 14 15 nan
nan nan nan nan nan nan nan nan nan nan nan nan nan nan nan nan nan nan nan nan nan nan nan nan nan nan nan nan nan nan nan nan nan nan nan nan nan nan
CAPE
2035 1768 1408 1235 1228 809 653 480 483 514 246 178 21 15 41 27 27 1 0 0 0 0 0 0 0 0 0 6 9 36 62 49 23 32 2 3 2 3
1003 1420 1229 872 642 613 708 666 595 523 640 170 272 125 10 7 7 7 0 0 0 0 0 0 0 0 0 0 1 2 2 5 0 0 0 2 3 3
295 409 529 385 456 397 449 546 463 513 390 429 24 96 106 8 6 7 7 0 0 0 0 0 0 0 0 0 0 0 0 0 0 0 2 2 3 5
252 197 263 145 280 346 237 150 90 214 214 114 6 1 0 8 6 2 0 0 0 1 0 0 0 0 0 0 1 0 0 0 0 0 1 5 6 7
151 101 192 163 213 418 326 372 291 196 197 95 30 0 0 0 2 1 0 0 0 1 1 1 0 0 0 1 0 0 0 0 0 0 0 1 4 5
94 26 37 31 103 180 312 254 167 192 98 52 14 0 1 1 0 0 2 0 0 0 0 0 0 0 1 0 0 0 0 0 0 0 0 0 0 1
59 50 184 101 74 165 220 202 234 122 96 40 12 1 0 2 0 1 0 2 0 0 0 0 0 0 2 0 0 1 1 1 1 1 0 0 0 0
80 56 5 0 0 0 0 0 0 4 8 9 2 0 0 0 0 0 0 0 0 0 0 0 0 0 0 0 2 6 6 4 3 2 1 1 1 1
80 29 13 0 0 1 1 1 1 0 0 1 0 1 0 0 0 0 0 0 0 0 0 0 0 0 0 3 6 6 5 2 5 6 6 4 1 0
8 7 5 0 0 0 0 0 1 3 2 1 4 3 2 0 0 0 0 0 0 0 0 0 0 1 0 0 7 7 7 7 8 9 7 7 4 1
1 0 1 2 1 0 0 0 1 4 0 0 0 0 1 0 0 0 0 0 0 0 0 0 1 2 2 2 0 8 7 6 9 11 13 9 8 5
2 0 0 0 1 0 1 1 1 4 2 1 3 0 0 0 0 0 0 0 0 0 0 0 0 0 0 3 5 5 6 9 11 17 14 13 13 10
0 1 1 0 0 0 0 0 3 3 5 4 1 1 1 0 0 0 0 0 0 0 0 0 0 1 0 3 4 4 5 6 8 11 15 18 14 11
0 1 2 2 1 0 1 0 0 1 4 2 2 2 1 3 1 1 0 0 0 0 0 0 0 0 0 1 1 3 4 9 11 12 14 16 15 2
1 1 1 1 1 1 1 0 0 4 3 2 2 4 2 3 2 0 1 1 0 1 0 0 0 0 0 1 1 3 5 10 17 16 20 13 5 1
1 4 1 1 1 1 1 1 1 1 1 2 1 3 1 1 1 1 1 0 0 0 1 1 1 0 1 2 2 8 8 8 12 12 10 2 2 2
3 2 1 1 0 1 1 1 1 1 1 1 1 2 2 0 1 1 0 0 0 0 0 1 1 2 4 8 14 11 8 11 11 6 3 5 1 0
3 4 5 5 4 3 3 3 2 1 1 0 1 0 0 1 1 2 2 2 2 2 2 2 2 5 3 2 7 8 9 6 7 2 0 0 0 0
21 16 11 7 5 4 4 3 5 6 3 4 2 4 3 3 4 6 9 6 9 7 9 9 6 3 2 1 2 0 4 1 0 0 0 0 0 0
10 11 14 10 9 11 10 12 14 14 13 11 11 11 10 9 9 7 7 7 7 6 5 3 4 3 1 1 4 1 0 2 3 2 0 0 0 0
10 11 14 12 13 11 11 14 12 16 16 10 9 8 11 6 9 8 7 4 3 1 0 0 0 0 1 2 3 2 0 0 0 3 1 1 0 0
12 10 11 13 15 15 15 15 16 13 12 8 9 10 7 3 4 3 2 0 0 0 0 0 0 0 0 0 2 3 1 1 0 0 0 0 4 4
11 10 10 13 9 11 9 14 12 12 5 4 4 5 6 4 2 1 0 0 0 0 0 0 0 0 0 0 0 0 0 0 0 0 2 0 0 0